TimeCDT,TemperatureF,Dew PointF,Humidity,Sea Level PressureIn,VisibilityMPH,Wind Direction,Wind SpeedMPH,Gust SpeedMPH,PrecipitationIn,Events,Conditions,WindDirDegrees,DateUTC
12:15 AM,51.8,30.0,43,29.74,10.0,SW,18.4,25.3,N/A,,Overcast,230,2013-10-26 05:15:00
12:35 AM,51.8,30.2,44,29.73,10.0,WSW,20.7,25.3,N/A,,Mostly Cloudy,240,2013-10-26 05:35:00
12:55 AM,51.8,30.7,45,29.73,10.0,SW,18.4,24.2,N/A,,Overcast,230,2013-10-26 05:55:00
1:15 AM,52.2,30.9,44,29.72,10.0,WSW,15.0,26.5,N/A,,Overcast,240,2013-10-26 06:15:00
1:35 AM,52.7,31.1,44,29.72,10.0,WSW,16.1,24.2,N/A,,Overcast,240,2013-10-26 06:35:00
1:55 AM,52.5,31.5,45,29.71,10.0,WSW,12.7,23.0,N/A,,Overcast,240,2013-10-26 06:55:00
2:15 AM,51.8,31.6,46,29.70,10.0,WSW,16.1,20.7,N/A,,Scattered Clouds,240,2013-10-26 07:15:00
2:35 AM,50.9,31.8,48,29.70,10.0,WSW,11.5,-,N/A,,Clear,240,2013-10-26 07:35:00
2:55 AM,50.0,32.0,50,29.70,10.0,SW,10.4,-,N/A,,Clear,230,2013-10-26 07:55:00
3:15 AM,48.6,32.0,53,29.69,10.0,SW,8.1,-,N/A,,Clear,230,2013-10-26 08:15:00
3:35 AM,48.2,32.4,54,29.69,10.0,SW,8.1,-,N/A,,Scattered Clouds,230,2013-10-26 08:35:00
3:55 AM,48.7,33.1,55,29.69,10.0,WSW,9.2,-,N/A,,Scattered Clouds,240,2013-10-26 08:55:00
4:15 AM,49.6,34.0,55,29.69,10.0,WSW,11.5,16.1,N/A,,Scattered Clouds,250,2013-10-26 09:15:00
4:35 AM,49.1,34.2,56,29.69,10.0,West,11.5,-,N/A,,Scattered Clouds,260,2013-10-26 09:35:00
4:55 AM,48.6,34.3,58,29.69,10.0,WSW,10.4,-,N/A,,Clear,250,2013-10-26 09:55:00
5:15 AM,48.2,34.9,60,29.71,10.0,West,9.2,-,N/A,,Scattered Clouds,260,2013-10-26 10:15:00
5:35 AM,47.3,35.1,62,29.71,10.0,West,9.2,-,N/A,,Clear,260,2013-10-26 10:35:00
5:55 AM,46.0,35.2,66,29.72,10.0,West,9.2,-,N/A,,Clear,260,2013-10-26 10:55:00
6:15 AM,45.1,35.6,69,29.72,10.0,West,8.1,-,N/A,,Scattered Clouds,260,2013-10-26 11:15:00
6:35 AM,45.3,36.0,70,29.73,10.0,West,8.1,-,N/A,,Mostly Cloudy,270,2013-10-26 11:35:00
6:55 AM,44.2,35.8,72,29.73,10.0,West,6.9,-,N/A,,Scattered Clouds,260,2013-10-26 11:55:00
7:15 AM,44.1,36.0,73,29.74,10.0,West,8.1,-,N/A,,Clear,280,2013-10-26 12:15:00
7:35 AM,44.6,36.0,72,29.75,10.0,WNW,6.9,-,N/A,,Clear,290,2013-10-26 12:35:00
7:55 AM,45.7,33.6,63,29.76,10.0,WNW,9.2,16.1,N/A,,Clear,300,2013-10-26 12:55:00
8:15 AM,45.7,32.5,60,29.78,10.0,WNW,10.4,-,N/A,,Scattered Clouds,300,2013-10-26 13:15:00
8:35 AM,45.3,32.2,60,29.79,10.0,NW,10.4,-,N/A,,Scattered Clouds,320,2013-10-26 13:35:00
8:55 AM,46.8,32.4,57,29.80,10.0,NW,11.5,-,N/A,,Mostly Cloudy,310,2013-10-26 13:55:00
9:15 AM,46.6,32.0,57,29.81,10.0,NW,12.7,17.3,N/A,,Scattered Clouds,310,2013-10-26 14:15:00
9:35 AM,48.6,32.5,54,29.81,10.0,NW,12.7,17.3,N/A,,Scattered Clouds,310,2013-10-26 14:35:00
9:55 AM,48.2,32.2,54,29.82,10.0,WNW,10.4,18.4,N/A,,Mostly Cloudy,300,2013-10-26 14:55:00
10:15 AM,48.2,32.0,54,29.83,10.0,NNW,15.0,21.9,N/A,,Scattered Clouds,330,2013-10-26 15:15:00
10:35 AM,48.6,28.8,46,29.83,10.0,NW,19.6,23.0,N/A,,Scattered Clouds,320,2013-10-26 15:35:00
10:55 AM,47.5,29.3,49,29.84,10.0,NW,12.7,21.9,N/A,,Mostly Cloudy,310,2013-10-26 15:55:00
11:15 AM,48.2,30.9,51,29.85,10.0,WNW,13.8,18.4,N/A,,Mostly Cloudy,300,2013-10-26 16:15:00
11:35 AM,49.8,27.7,42,29.87,10.0,NNW,12.7,20.7,N/A,,Mostly Cloudy,330,2013-10-26 16:35:00
11:55 AM,48.4,25.2,40,29.88,10.0,NW,16.1,21.9,N/A,,Mostly Cloudy,320,2013-10-26 16:55:00
12:15 PM,50.4,25.7,38,29.88,10.0,NW,10.4,25.3,N/A,,Mostly Cloudy,310,2013-10-26 17:15:00
12:35 PM,49.3,26.2,41,29.89,10.0,NNW,17.3,27.6,N/A,,Overcast,340,2013-10-26 17:35:00
12:55 PM,48.7,27.7,44,29.90,10.0,NW,17.3,25.3,N/A,,Overcast,310,2013-10-26 17:55:00
1:15 PM,51.6,27.5,39,29.90,10.0,NW,12.7,21.9,N/A,,Overcast,320,2013-10-26 18:15:00
1:35 PM,50.9,27.9,41,29.91,10.0,NW,12.7,23.0,N/A,,Mostly Cloudy,310,2013-10-26 18:35:00
1:55 PM,50.0,26.6,40,29.91,10.0,WNW,16.1,26.5,N/A,,Mostly Cloudy,300,2013-10-26 18:55:00
2:15 PM,51.4,27.5,40,29.92,10.0,NW,13.8,20.7,N/A,,Mostly Cloudy,310,2013-10-26 19:15:00
2:35 PM,48.6,28.4,46,29.93,10.0,NW,15.0,23.0,N/A,,Overcast,310,2013-10-26 19:35:00
2:55 PM,47.3,31.1,53,29.94,10.0,NW,15.0,21.9,N/A,,Overcast,320,2013-10-26 19:55:00
3:15 PM,46.6,30.9,54,29.96,10.0,NW,11.5,23.0,N/A,,Overcast,310,2013-10-26 20:15:00
3:35 PM,48.7,29.3,47,29.96,10.0,NW,18.4,24.2,N/A,,Mostly Cloudy,310,2013-10-26 20:35:00
3:55 PM,48.2,29.5,48,29.96,10.0,NW,11.5,-,N/A,,Clear,310,2013-10-26 20:55:00
4:15 PM,50.0,29.3,45,29.96,10.0,NNW,17.3,24.2,N/A,,Mostly Cloudy,330,2013-10-26 21:15:00
4:35 PM,48.4,28.4,46,29.97,10.0,NW,15.0,25.3,N/A,,Overcast,310,2013-10-26 21:35:00
4:55 PM,48.0,30.0,50,29.98,10.0,NNW,13.8,19.6,N/A,,Mostly Cloudy,340,2013-10-26 21:55:00
5:15 PM,46.4,30.7,54,29.98,10.0,NNW,9.2,-,N/A,,Mostly Cloudy,340,2013-10-26 22:15:00
5:35 PM,46.2,30.4,54,29.99,10.0,NW,8.1,-,N/A,,Mostly Cloudy,320,2013-10-26 22:35:00
5:55 PM,45.7,30.2,55,30.00,10.0,NW,6.9,-,N/A,,Overcast,310,2013-10-26 22:55:00
6:15 PM,45.9,30.0,54,30.00,10.0,NW,6.9,-,N/A,,Overcast,320,2013-10-26 23:15:00
6:35 PM,45.7,29.8,54,30.01,10.0,NW,6.9,-,N/A,,Overcast,310,2013-10-26 23:35:00
6:55 PM,45.1,30.4,56,30.02,10.0,NW,5.8,-,N/A,,Overcast,310,2013-10-26 23:55:00
7:15 PM,45.1,30.2,56,30.03,10.0,NW,9.2,-,N/A,,Overcast,320,2013-10-27 00:15:00
7:35 PM,45.0,30.0,56,30.03,10.0,NW,6.9,-,N/A,,Overcast,320,2013-10-27 00:35:00
7:55 PM,44.8,29.8,56,30.03,10.0,NW,6.9,-,N/A,,Overcast,310,2013-10-27 00:55:00
8:15 PM,44.4,29.8,57,30.03,10.0,NW,4.6,-,N/A,,Overcast,310,2013-10-27 01:15:00
8:35 PM,43.7,29.8,58,30.03,10.0,NW,4.6,-,N/A,,Overcast,310,2013-10-27 01:35:00
8:55 PM,43.7,30.2,59,30.03,10.0,NW,3.5,-,N/A,,Overcast,310,2013-10-27 01:55:00
9:15 PM,44.1,30.2,58,30.03,10.0,WNW,5.8,-,N/A,,Overcast,300,2013-10-27 02:15:00
9:35 PM,43.9,30.2,59,30.03,10.0,WNW,3.5,-,N/A,,Overcast,290,2013-10-27 02:35:00
9:55 PM,43.7,30.0,59,30.03,10.0,Calm,Calm,-,N/A,,Overcast,0,2013-10-27 02:55:00
10:15 PM,43.2,30.2,60,30.03,10.0,West,4.6,-,N/A,,Overcast,270,2013-10-27 03:15:00
10:35 PM,41.7,30.9,66,30.03,10.0,West,4.6,-,N/A,,Overcast,260,2013-10-27 03:35:00
10:55 PM,40.8,31.1,68,30.03,10.0,WSW,3.5,-,N/A,,Overcast,250,2013-10-27 03:55:00
11:15 PM,41.0,31.1,68,30.03,10.0,West,4.6,-,N/A,,Overcast,260,2013-10-27 04:15:00
11:35 PM,41.2,31.6,69,30.03,10.0,Calm,Calm,-,N/A,,Overcast,0,2013-10-27 04:35:00
11:55 PM,39.9,32.0,73,30.02,10.0,Calm,Calm,-,N/A,,Overcast,0,2013-10-27 04:55:00